GW3985 Weather Reports


time (UTC)temp
C
wind
direction
speed
KPH
gust
KPH
rain 1hr
cm
rain 24hr
cm
rain mn
cm
humidity
%
barometer
mb
20260503010016 18 84 0.0 3.2 0.00 0.00 0.00 20 1020.9
20260503005016 19 100 1.6 4.8 0.00 0.00 0.00 19 1020.9
20260503004016 20 125 0.0 3.2 0.00 0.00 0.00 18 1020.9
20260503003017 21 127 3.2 8.0 0.00 0.00 0.00 17 1021.1
20260503002015 22 250 0.0 3.2 0.00 0.00 0.00 16 1021.1
20260503001015 22 290 0.0 1.6 0.00 0.00 0.00 15 1021.2
20260503000015 21 116 0.0 3.2 0.00 0.00 0.00 15 1021.3
20260502235016 21 111 1.6 4.8 0.00 0.00 0.00 15 1021.4
20260502234016 22 101 1.6 4.8 0.00 0.00 0.00 14 1021.5
20260502233017 23 118 0.0 1.6 0.00 0.00 0.00 14 1021.6
20260502232017 23 292 0.0 1.6 0.00 0.00 0.00 14 1021.7
20260502231015 22 246 0.0 1.6 0.00 0.00 0.00 14 1021.8
20260502230016 22 105 1.6 6.4 0.00 0.00 0.00 15 1021.8
20260502225016 23 106 1.6 4.8 0.00 0.00 0.00 14 1021.9
20260502224017 22 264 1.6 4.8 0.00 0.00 0.00 14 1022.0
20260502223017 22 106 1.6 4.8 0.00 0.00 0.00 14 1022.1
20260502222017 22 204 0.0 3.2 0.00 0.00 0.00 14 1022.2
20260502221014 22 129 1.6 6.4 0.00 0.00 0.00 14 1022.3
20260502220035 22 240 1.6 3.2 0.00 0.00 0.00 14 1022.5
20260502215015 22 128 0.0 1.6 0.00 0.00 0.00 15 1022.6
20260502214016 21 147 1.6 3.2 0.00 0.00 0.00 15 1022.9
20260502213016 22 164 4.8 14.5 0.00 0.00 0.00 16 1023.1
20260502212016 21 127 3.2 6.4 0.00 0.00 0.00 17 1023.2
20260502211017 21 120 1.6 3.2 0.00 0.00 0.00 16 1023.4
20260502210015 21 150 0.0 3.2 0.00 0.00 0.00 18 1023.5
20260502205015 20 138 1.6 8.0 0.00 0.00 0.00 18 1023.7
20260502204015 20 129 3.2 12.9 0.00 0.00 0.00 17 1023.8
20260502203017 21 260 1.6 3.2 0.00 0.00 0.00 18 1024.0
20260502202016 22 101 1.6 9.7 0.00 0.00 0.00 17 1024.0
20260502201016 21 87 0.0 4.8 0.00 0.00 0.00 18 1024.1
20260502200057 21 355 0.0 3.2 0.00 0.00 0.00 18 1024.2
20260502195015 20 224 1.6 6.4 0.00 0.00 0.00 18 1024.3
20260502194035 20 234 1.6 4.8 0.00 0.00 0.00 20 1024.4
20260502193016 20 263 0.0 3.2 0.00 0.00 0.00 20 1024.6
20260502192016 20 237 0.0 3.2 0.00 0.00 0.00 21 1024.7
20260502191017 20 229 1.6 4.8 0.00 0.00 0.00 20 1024.8
20260502190017 18 38 1.6 6.4 0.00 0.00 0.00 22 1025.0
20260502185037 18 164 0.0 3.2 0.00 0.00 0.00 20 1025.1
20260502184015 18 340 0.0 3.2 0.00 0.00 0.00 22 1025.3
20260502183015 18 229 1.6 3.2 0.00 0.00 0.00 22 1025.5
20260502182015 18 242 1.6 4.8 0.00 0.00 0.00 22 1025.6
20260502181016 18 248 0.0 3.2 0.00 0.00 0.00 23 1025.6
20260502164017 15 184 0.0 1.6 0.00 0.00 0.00 27 1026.2
20260502163035 15 123 1.6 4.8 0.00 0.00 0.00 26 1026.2
20260502162015 15 13 1.6 4.8 0.00 0.00 0.00 27 1026.2
20260502161036 15 301 0.0 3.2 0.00 0.00 0.00 29 1026.3
20260502152015 11 56 0.0 4.8 0.00 0.00 0.00 39 1026.7
20260502151035 11 220 1.6 4.8 0.00 0.00 0.00 38 1026.7
20260502123036 3 132 1.6 4.8 0.00 0.00 0.00 55 1026.1
20260502122017 3 132 0.0 1.6 0.00 0.00 0.00 55 1026.0
20260502121017 3 131 0.0 3.2 0.00 0.00 0.00 55 1025.9
20260502115015 3 134 1.6 3.2 0.00 0.00 0.00 55 1025.9
20260502114015 3 135 1.6 3.2 0.00 0.00 0.00 55 1025.9
20260502113015 3 139 1.6 3.2 0.00 0.00 0.00 55 1025.8
20260502112016 3 136 0.0 1.6 0.00 0.00 0.00 55 1025.9
20260502111016 3 134 1.6 3.2 0.00 0.00 0.00 55 1025.9
20260502110017 3 137 1.6 4.8 0.00 0.00 0.00 55 1025.9
20260502105017 3 133 1.6 4.8 0.00 0.00 0.00 55 1025.9
20260502104015 3 135 1.6 3.2 0.00 0.00 0.00 55 1026.0
20260502103015 3 131 1.6 4.8 0.00 0.00 0.00 55 1025.9
20260502102016 3 136 1.6 4.8 0.00 0.00 0.00 55 1025.9
20260502101036 3 135 1.6 4.8 0.00 0.00 0.00 55 1025.8
20260502091016 4 136 1.6 4.8 0.00 0.00 0.00 52 1025.7
20260502071015 4 137 0.0 1.6 0.00 0.00 0.00 53 1026.0
20260502070015 5 132 0.0 3.2 0.00 0.00 0.00 52 1026.0
20260502065036 5 132 1.6 4.8 0.00 0.00 0.00 52 1026.1
20260502064036 5 135 3.2 6.4 0.00 0.00 0.00 51 1026.0
20260502063037 5 136 1.6 6.4 0.00 0.00 0.00 51 1026.0
20260502062017 5 139 0.0 3.2 0.00 0.00 0.00 51 1026.0
20260502061015 5 139 1.6 4.8 0.00 0.00 0.00 50 1026.0
20260502060015 6 135 1.6 4.8 0.00 0.00 0.00 49 1025.9
20260502055015 6 134 1.6 4.8 0.00 0.00 0.00 49 1025.9
20260502054036 6 137 0.0 3.2 0.00 0.00 0.00 49 1025.9
20260502053016 6 0.0 0.0 0.00 0.00 0.00 49 1025.9
20260502052057 6 124 0.0 3.2 0.00 0.00 0.00 49 1025.9
20260502051017 6 126 0.0 1.6 0.00 0.00 0.00 48 1025.8
20260502050015 7 132 0.0 1.6 0.00 0.00 0.00 46 1025.8
20260502045035 7 118 0.0 1.6 0.00 0.00 0.00 41 1025.7
20260502044016 7 118 0.0 1.6 0.00 0.00 0.00 41 1025.6
20260502043016 7 112 0.0 1.6 0.00 0.03 0.00 40 1025.6
20260502042016 8 101 0.0 1.6 0.00 0.03 0.00 39 1025.4
20260502041017 7 102 0.0 1.6 0.00 0.03 0.00 41 1025.3
20260502040017 7 0.0 0.0 0.00 0.03 0.00 41 1025.2
20260502035015 7 102 0.0 1.6 0.00 0.05 0.00 40 1025.1
20260502034055 8 102 0.0 1.6 0.00 0.13 0.00 40 1025.0
20260502033036 7 0.0 0.0 0.00 0.15 0.00 40 1024.9
20260502032016 7 0.0 0.0 0.00 0.15 0.00 41 1024.7
20260502031016 8 0.0 0.0 0.00 0.15 0.00 40 1024.6
20260502030017 8 0.0 0.0 0.00 0.15 0.00 38 1024.5
20260502025037 8 0.0 0.0 0.00 0.15 0.00 37 1024.3
20260502024035 9 0.0 0.0 0.00 0.15 0.00 36 1024.2
20260502023015 10 0.0 0.0 0.00 0.15 0.00 34 1024.1
20260502022016 10 331 0.0 1.6 0.00 0.15 0.00 32 1023.9
20260502021036 10 327 0.0 1.6 0.00 0.15 0.00 31 1023.8
20260502020016 11 273 0.0 1.6 0.00 0.15 0.00 31 1023.8
20260502015037 11 0.0 0.0 0.00 0.15 0.00 30 1023.7
20260502014017 12 275 0.0 1.6 0.00 0.15 0.00 28 1023.6
20260502013035 12 262 0.0 1.6 0.00 0.15 0.00 27 1023.5
20260502012035 12 298 0.0 1.6 0.00 0.15 0.00 27 1023.4
20260502011015 12 149 0.0 1.6 0.00 0.15 0.00 26 1023.4